Date,TemperatureHighF,TemperatureAvgF,TemperatureLowF,DewpointHighF,DewpointAvgF,DewpointLowF,HumidityHigh,HumidityAvg,HumidityLow,PressureMaxIn,PressureMinIn,WindSpeedMaxMPH,WindSpeedAvgMPH,GustSpeedMaxMPH,PrecipitationSumIn
2013-2-1,30,26,20,33,30,25,31,28,26,0.00,40.00,0,0,0,0.00
2013-2-2,31,24,18,26,25,24,27,26,25,0.00,40.00,0,0,0,0.00
2013-2-3,31,25,20,26,25,24,27,27,26,0.00,40.00,0,0,0,0.00
2013-2-4,29,23,17,26,24,23,27,26,25,0.00,40.00,0,0,0,0.00
2013-2-5,30,26,23,29,27,26,26,26,25,0.00,40.00,0,0,0,0.00
2013-2-6,37,30,23,29,28,27,27,26,25,0.00,40.00,0,0,0,0.00
2013-2-7,34,26,17,30,26,24,28,24,23,0.00,40.00,0,0,0,0.00
2013-2-9,20,18,16,32,27,26,30,24,24,0.00,40.00,0,0,0,0.00
2013-2-10,38,19,1,27,25,22,24,23,22,0.00,40.00,0,0,0,0.00
2013-2-11,42,33,16,33,27,22,30,26,24,0.00,40.00,0,0,0,0.00
2013-2-12,42,36,34,34,33,33,31,30,29,0.00,40.00,0,0,0,0.00
2013-2-13,44,35,32,34,33,32,31,30,29,0.00,40.00,0,0,0,0.00
2013-2-14,45,34,25,34,33,32,30,30,29,0.00,40.00,0,0,0,0.00
2013-2-15,49,37,28,34,33,32,32,30,29,0.00,40.00,0,0,0,0.00
2013-2-16,38,33,28,33,31,30,31,31,31,0.00,40.00,0,0,0,0.00
2013-2-17,28,22,14,30,26,24,31,28,25,0.00,40.00,0,0,0,0.00
2013-2-18,32,20,12,25,24,22,25,24,22,0.00,40.00,0,0,0,0.00
2013-2-19,45,33,18,33,28,25,30,26,24,0.00,40.00,0,0,0,0.00
2013-2-20,38,30,24,33,30,28,30,28,25,0.00,40.00,0,0,0,0.00
2013-2-21,31,25,22,28,27,25,26,25,24,0.00,40.00,0,0,0,0.00
2013-2-22,42,30,17,30,28,26,27,25,24,0.00,40.00,0,0,0,0.00
2013-2-23,37,34,32,33,32,30,30,28,27,0.00,40.00,0,0,0,0.00
2013-2-24,38,35,32,35,34,33,32,31,29,0.00,40.00,0,0,0,0.00
2013-2-25,41,34,27,34,34,33,32,31,29,0.00,40.00,0,0,0,0.00
2013-2-26,41,36,34,35,35,34,32,32,31,0.00,40.00,0,0,0,0.00
2013-2-27,42,38,34,38,36,35,34,33,31,0.00,40.00,0,0,0,0.00
2013-2-28,46,38,34,38,37,37,35,34,33,0.00,40.00,0,0,0,0.00